Weather History for Stigler, OK

Change the Weather History Date:

Tuesday, February 25, 2014

  Actual Average (KJSV) Record (KJSV)
Temperature  
Mean Temperature 42 °F -  
Max Temperature 53 °F 59 °F 78 °F (1956)
Min Temperature 32 °F 35 °F 11 °F (1967)
Degree Days  
Heating Degree Days 22    
Moisture  
Dew Point 17 °F    
Average Humidity 35    
Maximum Humidity 61    
Minimum Humidity 22    
Precipitation  
Precipitation 0.00 in - - ()
Sea Level Pressure  
Sea Level Pressure 30.17 in    
Wind  
Wind Speed 7 mph (NNE)    
Max Wind Speed 20 mph    
Max Gust Speed 26 mph    
Visibility 10 miles    
Events      
Averages and records for this station are not official NWS values.
T = Trace of Precipitation, MM = Missing Value Source: NWS Daily Summary

Daily Weather History Graph

Daily Weather History Graph

Search for Another Location

Airport:

Trip Planner

Search our weather history database for the weather conditions in past years. The results will help you decide how hot, cold, wet, or windy it might be!

Date:

Astronomy

Feb. 25, 2014 Rise Set
Actual Time 6:55 AM CST 6:12 PM CST
Civil Twilight 6:29 AM CST 6:37 PM CST
Nautical Twilight 5:59 AM CST 7:07 PM CST
Astronomical Twilight 5:30 AM CST 7:36 PM CST
Moon 3:44 AM CST (2/25) 2:24 PM CST (2/25)
Length of Visible Light 12h 08m
Length of Day
11h 17m
Waning Crescent, 18% of the Moon is Illuminated
Feb 25
Waning Crescent
Mar 1
New
Mar 8
First Quarter
Mar 16
Full
Mar 23
Last Quarter

Hourly Weather History & Observations

Time (CST) Temp. Windchill Dew Point Humidity Pressure Visibility Wind Dir Wind Speed Gust Speed Precip Events Conditions
12:15 AM 44.6 °F 41.4 °F 17.6 °F 34% 30.15 in 10.0 mi East 5.8 mph - N/A   Unknown
12:35 AM 44.6 °F 41.4 °F 17.6 °F 34% 30.16 in 10.0 mi ESE 5.8 mph - N/A   Unknown
12:55 AM 46.4 °F 42.4 °F 17.6 °F 32% 30.16 in 7.0 mi East 8.1 mph - N/A   Unknown
1:15 AM 46.4 °F 43.5 °F 19.4 °F 34% 30.16 in 8.0 mi East 5.8 mph - N/A   Unknown
1:35 AM 44.6 °F 42.2 °F 19.4 °F 37% 30.16 in 10.0 mi ESE 4.6 mph - N/A   Unknown
1:55 AM 44.6 °F 43.1 °F 19.4 °F 37% 30.16 in 10.0 mi ESE 3.5 mph - N/A   Unknown
2:15 AM 44.6 °F - 21.2 °F 39% 30.16 in 10.0 mi Calm Calm - N/A   Unknown
2:35 AM 44.6 °F - 21.2 °F 39% 30.16 in 9.0 mi Calm Calm - N/A   Unknown
2:55 AM 42.8 °F - 24.8 °F 49% 30.16 in 10.0 mi Calm Calm - N/A   Unknown
3:15 AM 42.8 °F 41.1 °F 24.8 °F 49% 30.16 in 10.0 mi North 3.5 mph - N/A   Unknown
3:35 AM 42.8 °F 40.1 °F 26.6 °F 53% 30.17 in 10.0 mi NNE 4.6 mph - N/A   Unknown
3:55 AM 42.8 °F 40.1 °F 24.8 °F 49% 30.17 in 10.0 mi North 4.6 mph - N/A   Unknown
4:15 AM 42.8 °F 39.3 °F 23.0 °F 46% 30.18 in 10.0 mi NNE 5.8 mph - N/A   Unknown
4:35 AM 44.6 °F 41.4 °F 23.0 °F 43% 30.18 in 10.0 mi NE 5.8 mph - N/A   Unknown
4:55 AM 44.6 °F 40.7 °F 19.4 °F 37% 30.17 in 10.0 mi ENE 6.9 mph - N/A   Unknown
5:15 AM 44.6 °F 41.4 °F 21.2 °F 39% 30.17 in 10.0 mi East 5.8 mph - N/A   Unknown
5:35 AM 42.8 °F 39.3 °F 23.0 °F 46% 30.16 in 10.0 mi East 5.8 mph - N/A   Unknown
5:55 AM 42.8 °F 41.1 °F 23.0 °F 46% 30.16 in 10.0 mi SE 3.5 mph - N/A   Unknown
6:15 AM 42.8 °F 40.1 °F 23.0 °F 46% 30.15 in 8.0 mi ESE 4.6 mph - N/A   Unknown
6:35 AM 41.0 °F 39.0 °F 24.8 °F 53% 30.16 in 8.0 mi NNE 3.5 mph - N/A   Unknown
6:55 AM 41.0 °F - 23.0 °F 49% 30.16 in 10.0 mi Calm Calm - N/A   Unknown
7:15 AM 37.4 °F - 24.8 °F 60% 30.17 in 9.0 mi Calm Calm - N/A   Unknown
7:35 AM 37.4 °F - 24.8 °F 60% 30.18 in 9.0 mi Calm Calm - N/A   Unknown
7:55 AM 39.2 °F - 26.6 °F 61% 30.19 in 9.0 mi Calm Calm - N/A   Unknown
8:15 AM 44.6 °F 43.1 °F 24.8 °F 46% 30.19 in 9.0 mi WNW 3.5 mph - N/A   Unknown
8:35 AM 46.4 °F 43.5 °F 23.0 °F 40% 30.19 in 8.0 mi North 5.8 mph - N/A   Unknown
8:55 AM 46.4 °F 42.9 °F 19.4 °F 34% 30.18 in 9.0 mi North 6.9 mph - N/A   Unknown
9:15 AM 48.2 °F - 19.4 °F 32% 30.18 in 9.0 mi North 10.4 mph - N/A   Unknown
9:35 AM 48.2 °F - 17.6 °F 30% 30.18 in 10.0 mi North 9.2 mph - N/A   Unknown
9:55 AM 50.0 °F - 17.6 °F 28% 30.18 in 9.0 mi ENE 8.1 mph - N/A   Unknown
10:15 AM 50.0 °F - 15.8 °F 26% 30.17 in 10.0 mi NE 6.9 mph - N/A   Unknown
10:35 AM 50.0 °F - 17.6 °F 28% 30.17 in 10.0 mi North 6.9 mph - N/A   Unknown
10:55 AM 50.0 °F - 19.4 °F 30% 30.17 in 10.0 mi North 5.8 mph - N/A   Unknown
11:15 AM 53.6 °F - 15.8 °F 22% 30.16 in 10.0 mi NE 9.2 mph - N/A   Unknown
11:35 AM 50.0 °F - 15.8 °F 26% 30.17 in 10.0 mi NE 5.8 mph - N/A   Unknown
11:55 AM 51.8 °F - 15.8 °F 24% 30.17 in 10.0 mi NNE 4.6 mph - N/A   Unknown
12:15 PM 50.0 °F - 15.8 °F 26% 30.16 in 10.0 mi NNE 8.1 mph - N/A   Unknown
12:35 PM 50.0 °F - 14.0 °F 24% 30.16 in 10.0 mi North 11.5 mph - N/A   Unknown
12:55 PM 50.0 °F - 14.0 °F 24% 30.14 in 9.0 mi North 11.5 mph - N/A   Unknown
1:15 PM 50.0 °F - 14.0 °F 24% 30.14 in 9.0 mi North 10.4 mph - N/A   Unknown
1:35 PM 50.0 °F - 14.0 °F 24% 30.13 in 9.0 mi North 11.5 mph - N/A   Unknown
1:55 PM 50.0 °F - 14.0 °F 24% 30.13 in 10.0 mi North 11.5 mph - N/A   Unknown
2:15 PM 50.0 °F - 14.0 °F 24% 30.12 in 9.0 mi North 12.7 mph - N/A   Unknown
2:35 PM 50.0 °F - 12.2 °F 22% 30.12 in 10.0 mi North 13.8 mph - N/A   Unknown
2:55 PM 48.2 °F - 12.2 °F 24% 30.12 in 10.0 mi North 11.5 mph - N/A   Unknown
3:15 PM 48.2 °F - 12.2 °F 24% 30.12 in 10.0 mi NNW 13.8 mph 20.7 mph N/A   Unknown
3:35 PM 48.2 °F - 12.2 °F 24% 30.12 in 10.0 mi North 13.8 mph - N/A   Unknown
3:55 PM 48.2 °F - 12.2 °F 24% 30.12 in 10.0 mi North 12.7 mph 20.7 mph N/A   Unknown
4:15 PM 48.2 °F - 12.2 °F 24% 30.12 in 10.0 mi North 10.4 mph - N/A   Unknown
4:35 PM 46.4 °F 41.1 °F 14.0 °F 27% 30.13 in 9.0 mi North 11.5 mph 17.3 mph N/A   Unknown
4:55 PM 46.4 °F 40.4 °F 14.0 °F 27% 30.13 in 9.0 mi North 13.8 mph - N/A   Unknown
5:15 PM 46.4 °F 40.4 °F 14.0 °F 27% 30.13 in 10.0 mi North 13.8 mph 18.4 mph N/A   Unknown
5:35 PM 46.4 °F 40.4 °F 14.0 °F 27% 30.14 in 10.0 mi North 13.8 mph 18.4 mph N/A   Unknown
5:55 PM 44.6 °F 38.8 °F 14.0 °F 29% 30.14 in 9.0 mi North 11.5 mph 17.3 mph N/A   Unknown
6:15 PM 44.6 °F 38.4 °F 14.0 °F 29% 30.14 in 10.0 mi NNE 12.7 mph - N/A   Unknown
6:35 PM 42.8 °F 35.8 °F 14.0 °F 31% 30.14 in 10.0 mi NNE 13.8 mph - N/A   Unknown
6:55 PM 42.8 °F 36.6 °F 14.0 °F 31% 30.15 in 10.0 mi NNE 11.5 mph - N/A   Unknown
7:15 PM 41.0 °F 32.8 °F 14.0 °F 33% 30.15 in 10.0 mi North 16.1 mph 19.6 mph N/A   Unknown
7:35 PM 41.0 °F 33.5 °F 14.0 °F 33% 30.16 in 10.0 mi North 13.8 mph - N/A   Unknown
7:55 PM 41.0 °F 33.5 °F 14.0 °F 33% 30.17 in 10.0 mi NNE 13.8 mph 17.3 mph N/A   Unknown
8:15 PM 41.0 °F 33.5 °F 15.8 °F 36% 30.18 in 10.0 mi North 13.8 mph 19.6 mph N/A   Unknown
8:35 PM 39.2 °F 30.5 °F 14.0 °F 36% 30.19 in 10.0 mi NNE 16.1 mph 21.9 mph N/A   Unknown
8:55 PM 39.2 °F 30.2 °F 14.0 °F 36% 30.20 in 10.0 mi NNE 17.3 mph - N/A   Unknown
9:15 PM 39.2 °F 31.6 °F 14.0 °F 36% 30.21 in 10.0 mi North 12.7 mph - N/A   Unknown
9:35 PM 39.2 °F 31.2 °F 14.0 °F 36% 30.21 in 10.0 mi NNE 13.8 mph 19.6 mph N/A   Unknown
9:55 PM 39.2 °F 30.2 °F 12.2 °F 33% 30.21 in 10.0 mi North 17.3 mph 21.9 mph N/A   Unknown
10:15 PM 37.4 °F 28.2 °F 12.2 °F 36% 30.22 in 10.0 mi North 16.1 mph 19.6 mph N/A   Unknown
10:35 PM 37.4 °F 28.2 °F 14.0 °F 38% 30.23 in 10.0 mi North 16.1 mph 23.0 mph N/A   Unknown
10:55 PM 35.6 °F 24.8 °F 12.2 °F 38% 30.24 in 10.0 mi North 19.6 mph 25.3 mph N/A   Unknown
11:15 PM 33.8 °F 23.5 °F 14.0 °F 44% 30.25 in 10.0 mi North 16.1 mph - N/A   Unknown
11:35 PM 32.0 °F 21.6 °F 14.0 °F 48% 30.27 in 10.0 mi North 15.0 mph 26.5 mph N/A   Unknown
11:55 PM 32.0 °F 21.2 °F 12.2 °F 44% 30.29 in 10.0 mi North 16.1 mph 25.3 mph N/A   Unknown